Weather History for Montgomery, AL

Change the Weather History Date:

Wednesday, September 18, 2013

  Actual Average Record
Temperature  
Mean Temperature 79 °F 76 °F  
Max Temperature 88 °F 87 °F 100 °F (1925)
Min Temperature 69 °F 65 °F 51 °F (1903)
Degree Days  
Heating Degree Days 0 0  
Month to date heating degree days 0 0  
Since 1 July heating degree days 0 0  
Cooling Degree Days 14 11  
Month to date cooling degree days 288 236  
Year to date cooling degree days 2110 2025  
Growing Degree Days 28 (Base 50)    
Moisture  
Dew Point 66 °F    
Average Humidity 67    
Maximum Humidity 84    
Minimum Humidity 50    
Precipitation  
Precipitation 0.00 in 0.13 in 1.36 in (1927)
Month to date precipitation 0.10 2.47  
Year to date precipitation 43.11 39.18  
Sea Level Pressure  
Sea Level Pressure 30.11 in    
Wind  
Wind Speed 9 mph (East)    
Max Wind Speed 16 mph    
Max Gust Speed 23 mph    
Visibility 10 miles    
Events      
T = Trace of Precipitation, MM = Missing Value Source: NWS Daily Summary

Daily Weather History Graph

Daily Weather History Graph

Search for Another Location

Airport:

Trip Planner

Search our weather history database for the weather conditions in past years. The results will help you decide how hot, cold, wet, or windy it might be!

Date:

Astronomy

Sep. 18, 2013 Rise Set
Actual Time 6:31 AM CDT 6:47 PM CDT
Civil Twilight 6:06 AM CDT 7:11 PM CDT
Nautical Twilight 5:38 AM CDT 7:40 PM CDT
Astronomical Twilight 5:09 AM CDT 8:09 PM CDT
Moon 6:11 PM CDT (9/18) 5:34 AM CDT (9/18)
Length of Visible Light 13h 04m
Length of Day
12h 15m
Waxing Gibbous, 99% of the Moon is Illuminated
Sep 18
Waxing Gibbous
Sep 19
Full
Sep 26
Last Quarter
Oct 4
New
Oct 11
First Quarter

Hourly Weather History & Observations

Time (CDT) Temp. Heat Index Dew Point Humidity Pressure Visibility Wind Dir Wind Speed Gust Speed Precip Events Conditions
12:53 AM 73.9 °F - 66.0 °F 76% 30.12 in 10.0 mi East 9.2 mph - N/A   Clear
1:24 AM 73.4 °F - 66.2 °F 78% 30.13 in 10.0 mi East 10.4 mph - N/A   Mostly Cloudy
1:53 AM 73.0 °F - 66.0 °F 79% 30.12 in 10.0 mi East 9.2 mph - N/A   Mostly Cloudy
2:31 AM 73.4 °F - 66.2 °F 78% 30.12 in 10.0 mi East 11.5 mph - N/A   Scattered Clouds
2:53 AM 72.0 °F - 66.0 °F 81% 30.11 in 10.0 mi East 9.2 mph - N/A   Clear
3:12 AM 71.6 °F - 66.2 °F 83% 30.12 in 10.0 mi East 8.1 mph - N/A   Mostly Cloudy
3:53 AM 73.0 °F - 66.0 °F 79% 30.11 in 10.0 mi ENE 10.4 mph - N/A   Overcast
4:53 AM 72.0 °F - 66.0 °F 81% 30.12 in 10.0 mi ENE 10.4 mph - N/A   Scattered Clouds
5:53 AM 70.0 °F - 64.9 °F 84% 30.12 in 10.0 mi ENE 9.2 mph - N/A   Clear
6:53 AM 69.1 °F - 64.9 °F 87% 30.13 in 9.0 mi East 10.4 mph - N/A   Clear
7:53 AM 72.0 °F - 64.0 °F 76% 30.15 in 10.0 mi East 11.5 mph - N/A   Clear
8:53 AM 73.9 °F - 63.0 °F 68% 30.16 in 10.0 mi East 13.8 mph 20.7 mph N/A   Clear
9:53 AM 78.1 °F - 64.0 °F 62% 30.17 in 10.0 mi East 15.0 mph - N/A   Scattered Clouds
10:53 AM 81.0 °F 82.7 °F 64.9 °F 58% 30.16 in 10.0 mi East 11.5 mph - N/A   Mostly Cloudy
11:53 AM 82.9 °F 85.0 °F 66.0 °F 56% 30.14 in 10.0 mi East 9.2 mph - N/A   Clear
12:53 PM 84.9 °F 87.1 °F 66.0 °F 53% 30.12 in 10.0 mi ESE 12.7 mph 16.1 mph N/A   Partly Cloudy
1:53 PM 86.0 °F 88.2 °F 66.0 °F 51% 30.10 in 10.0 mi East 8.1 mph - N/A   Partly Cloudy
2:53 PM 88.0 °F 90.3 °F 66.0 °F 48% 30.08 in 10.0 mi ESE 8.1 mph - N/A   Scattered Clouds
3:53 PM 86.0 °F 88.2 °F 66.0 °F 51% 30.07 in 10.0 mi East 6.9 mph - N/A   Mostly Cloudy
4:53 PM 84.9 °F 86.6 °F 64.9 °F 51% 30.06 in 10.0 mi East 5.8 mph - N/A   Scattered Clouds
5:53 PM 84.0 °F 85.8 °F 64.9 °F 53% 30.06 in 10.0 mi East 6.9 mph - N/A   Clear
6:53 PM 80.1 °F 82.1 °F 66.0 °F 62% 30.06 in 10.0 mi East 5.8 mph - N/A   Clear
7:53 PM 77.0 °F - 66.0 °F 69% 30.08 in 10.0 mi East 5.8 mph - N/A   Clear
8:53 PM 75.9 °F - 66.0 °F 71% 30.09 in 10.0 mi East 5.8 mph - N/A   Clear
9:53 PM 75.0 °F - 66.9 °F 76% 30.11 in 10.0 mi ESE 5.8 mph - N/A   Clear
10:53 PM 73.0 °F - 66.0 °F 79% 30.11 in 10.0 mi East 5.8 mph - N/A   Clear
11:53 PM 71.1 °F - 66.0 °F 84% 30.11 in 10.0 mi East 6.9 mph - N/A   Clear